COSMOS 886 DEB, 9656

Orbit data source: Space-Track

COSMOS 886 DEB, 9656 is space debris in LEO originally from a launch on Mon, 27 Dec 1976 UTC launched from the Tyuratam Missile And Space Complex (TTMTR). Debris objects in space refer to the collection of defunct objects orbiting the Earth. Examples of debris include non-operational satellites, rocket bodies, and fragments generated from explosions, collisions, or faulty payload assembly.

Loading next visibility...
Identifier
9656, 1976-126N
Orbit
LEO
Country
Flag of CISCIS
Related business
Manufacturer
Unknown
Mission
Spacecraft
Bus & Motor
Unknown
Mass
Unknown
Launch date (UTC)
1976-12-27 (49 years ago)
Launch vehicle
Unknown
Launch site
Tyuratam Missile And Space Complex (TTMTR)
Object type
Payload
Rocket body
Debris
Shape & HBR
Unknown shape, 0.2 m
Radar Cross Section
Small (<0.1 m²)

Expand to show TLE details & history
Last TLE update: 6 hours ago

TLE from 6 hours ago
0 COSMOS 886 DEB
1  9656U 76126N   26130.21364928  .00000157  00000-0  15974-3 0  9997
2  9656  65.8211 201.9124 0852382  93.3908 276.4880 12.90886900277318
Epoch: 2026-05-10T05:07Z
TLE epoch observation values (Epoch: 2026-05-10T05:07:39.297Z)
Latitude
0.00004°
Longitude
-103.02127°
Altitude
1,281.59 km
Speed
7.224 km/s
True Right ascension
13h 27m 38s
True Declination
0° 00' 00"
Sunlit
Object was in full shadow at epoch
Visualization orbit readout
Latitude
Unknown
Longitude
Unknown
Altitude
Unknown
Speed
Unknown
Apparent Right ascension
Unknown
Apparent Declination
Unknown
Sunlit
N/A
Visualization observer readout
Local Sidereal Time
18:56:04
Azimuth
Unknown
Elevation
Unknown
Doppler factor
Unknown
Orbital elements
Apogee altitude
1,950.748 km
Perigee altitude
642.392 km
Semi-major axis
7,674.707 km
Eccentricity
0.08524
Inclination
65.8211°
RAAN
201.9124°
Arg. of periapsis
93.3908°
True anomaly
266.71248°
Mean anomaly
276.488°
Eccentric anomaly
271.60613°
Mean motion
3.22813 °/min
Orbital period
111.52 mins
BSTAR
0.00015974
Loading maneuver chart data...
Computing Atmospheric mass density...

Documentation

Showing up to 5 results
|